DMSP 5D-2 F13 DEB, 40477

Orbit data source: Space-Track

DMSP 5D-2 F13 DEB, 40477 is space debris in SSO originally from a launch on Fri, 24 Mar 1995 UTC launched from the Air Force Western Test Range (AFWTR). Debris objects in space refer to the collection of defunct objects orbiting the Earth. Examples of debris include non-operational satellites, rocket bodies, and fragments generated from explosions, collisions, or faulty payload assembly.

Loading next visibility...
Identifier
40477, 1995-015BV
Orbit
SSO
Country
Flag of USUS
Related business
Manufacturer
Unknown
Mission
Spacecraft
Bus & Motor
Unknown
Mass
Unknown
Launch date (UTC)
1995-03-24 (31 years ago)
Launch vehicle
Unknown
Launch site
Air Force Western Test Range (AFWTR)
Object type
Payload
Rocket body
Debris
Shape & HBR
Unknown shape, 0.1 m
Radar Cross Section
Small (<0.1 m²)

Expand to show TLE details & history
Last TLE update: 2 days ago

TLE from 2 days ago
0 DMSP 5D-2 F13 DEB
1 40477U 95015BV  26132.07855516  .00003399  00000-0  94049-3 0  9996
2 40477  98.5680 176.6139 0018272 350.5984   9.4863 14.47222976582219
Epoch: 2026-05-12T01:53Z
TLE epoch observation values (Epoch: 2026-05-12T01:53:07.165Z)
Latitude
-0.00008°
Longitude
-81.52403°
Altitude
724.868 km
Speed
7.5 km/s
True Right ascension
11h 46m 27s
True Declination
0° 00' 00"
Sunlit
Object was in full shadow at epoch
Visualization orbit readout
Latitude
Unknown
Longitude
Unknown
Altitude
Unknown
Speed
Unknown
Apparent Right ascension
Unknown
Apparent Declination
Unknown
Sunlit
N/A
Visualization observer readout
Local Sidereal Time
00:16:26
Azimuth
Unknown
Elevation
Unknown
Doppler factor
Unknown
Orbital elements
Apogee altitude
744.84 km
Perigee altitude
718.857 km
Semi-major axis
7,109.986 km
Eccentricity
0.00183
Inclination
98.568°
RAAN
176.6139°
Arg. of periapsis
350.5984°
True anomaly
9.52089°
Mean anomaly
9.4863°
Eccentric anomaly
9.50359°
Mean motion
3.62026 °/min
Orbital period
99.44 mins
BSTAR
0.00094049
Loading maneuver chart data...
Computing Atmospheric mass density...

Documentation

Showing up to 5 results
|